カタログに戻る

STARLINK-37627

運用中通信SSO
NORAD 69315·PAYLOAD·🇺🇸 United States

打ち上げ May 30, 2026 から Vandenberg Space Force Base

Loading…

次のパス (今後24時間)

TLE

最新Source: CelesTrak SupGP

元期: Sep 15, 2026, 04:01 UTC

1 69315C 26119V   26258.16784722 -.00059112  00000+0 -18353-2 0  2582
2 69315  97.2829 283.0369 0001087 100.2423 119.9787 15.33464855    19

AllMySatでSTARLINK-37627をリアルタイム追跡

Download on the App Store